Tracking 19562 objects as of 24-Mar-2019
HD Live streaming from Space Station
objects crossing your sky now

IRIDIUM 135

Track IRIDIUM 135 now!
10-day predictions
IRIDIUM 135 is classified as:


NORAD ID: 43070
Int'l Code: 2017-083A
Perigee: 783.5 km
Apogee: 786.1 km
Inclination: 86.4 °
Period: 100.4 minutes
Semi major axis: 7155 km
RCS: Unknown
Launch date: December 23, 2017
Source: United States (US)
Launch site: AIR FORCE WESTERN TEST RANGE (AFWTR)
aabbcc
Your satellite tracking list
Your tracking list is empty




NASA's NSSDC Master Catalog

Two Line Element Set (TLE):
1 43070U 17083A   19082.80844519 +.00000087 +00000-0 +23845-4 0  9993
2 43070 086.4010 346.2649 0001785 092.4057 267.7343 14.34215957065416
Source of the keplerian elements: AFSPC